Year,Month,Day,Hour,Minute,Value (Times are PST for temperature in C)
2018,08,07,00,00,13.40
2018,08,07,00,01,13.40
2018,08,07,00,02,13.40
2018,08,07,00,03,13.40
2018,08,07,00,04,13.40
2018,08,07,00,05,13.40
2018,08,07,00,06,13.40
2018,08,07,00,07,13.40
2018,08,07,00,08,13.40
2018,08,07,00,09,13.40
2018,08,07,00,10,13.40
2018,08,07,00,11,13.40
2018,08,07,00,12,13.40
2018,08,07,00,13,13.40
2018,08,07,00,14,13.40
2018,08,07,00,15,13.40
2018,08,07,00,16,13.40
2018,08,07,00,17,13.40
2018,08,07,00,18,13.40
2018,08,07,00,19,13.40
2018,08,07,00,20,13.40
2018,08,07,00,21,13.40
2018,08,07,00,22,13.40
2018,08,07,00,23,13.40
2018,08,07,00,24,13.40
2018,08,07,00,25,13.40
2018,08,07,00,26,13.40
2018,08,07,00,27,13.40
2018,08,07,00,28,13.40
2018,08,07,00,29,13.30
2018,08,07,00,30,13.30
2018,08,07,00,31,13.30
2018,08,07,00,32,13.30
2018,08,07,00,33,13.30
2018,08,07,00,34,13.30
2018,08,07,00,35,13.30
2018,08,07,00,36,13.30
2018,08,07,00,37,13.30
2018,08,07,00,38,13.30
2018,08,07,00,39,13.30
2018,08,07,00,40,13.30
2018,08,07,00,41,13.30
2018,08,07,00,42,13.30
2018,08,07,00,43,13.30
2018,08,07,00,44,13.30
2018,08,07,00,45,13.30
2018,08,07,00,46,13.30
2018,08,07,00,47,13.30
2018,08,07,00,48,13.30
2018,08,07,00,49,13.30
2018,08,07,00,50,13.30
2018,08,07,00,51,13.30
2018,08,07,00,52,13.30
2018,08,07,00,53,13.30
2018,08,07,00,54,13.30
2018,08,07,00,55,13.30
2018,08,07,00,56,13.30
2018,08,07,00,57,13.30
2018,08,07,00,58,13.30
2018,08,07,00,59,13.30
2018,08,07,01,00,13.20
2018,08,07,01,01,13.20
2018,08,07,01,02,13.20
2018,08,07,01,03,13.20
2018,08,07,01,04,13.20
2018,08,07,01,05,13.20
2018,08,07,01,06,13.20
2018,08,07,01,07,13.20
2018,08,07,01,08,13.20
2018,08,07,01,09,13.20
2018,08,07,01,10,13.20
2018,08,07,01,11,13.20
2018,08,07,01,12,13.20
2018,08,07,01,13,13.30
2018,08,07,01,14,13.30
2018,08,07,01,15,13.30
2018,08,07,01,16,13.30
2018,08,07,01,17,13.30
2018,08,07,01,18,13.30
2018,08,07,01,19,13.30
2018,08,07,01,20,13.30
2018,08,07,01,21,13.30
2018,08,07,01,22,13.30
2018,08,07,01,23,13.30
2018,08,07,01,24,13.30
2018,08,07,01,25,13.30
2018,08,07,01,26,13.30
2018,08,07,01,27,13.30
2018,08,07,01,28,13.30
2018,08,07,01,29,13.30
2018,08,07,01,30,13.30
2018,08,07,01,31,13.30
2018,08,07,01,32,13.30
2018,08,07,01,33,13.30
2018,08,07,01,34,13.30
2018,08,07,01,35,13.30
2018,08,07,01,36,13.40
2018,08,07,01,37,13.40
2018,08,07,01,38,13.40
2018,08,07,01,39,13.40
2018,08,07,01,40,13.40
2018,08,07,01,41,13.40
2018,08,07,01,42,13.40
2018,08,07,01,43,13.40
2018,08,07,01,44,13.40
2018,08,07,01,45,13.30
2018,08,07,01,46,13.30
2018,08,07,01,47,13.30
2018,08,07,01,48,13.30
2018,08,07,01,49,13.30
2018,08,07,01,50,13.20
2018,08,07,01,51,13.20
2018,08,07,01,52,13.20
2018,08,07,01,53,13.20
2018,08,07,01,54,13.20
2018,08,07,01,55,13.20
2018,08,07,01,56,13.20
2018,08,07,01,57,13.30
2018,08,07,01,58,13.30
2018,08,07,01,59,13.30
2018,08,07,02,00,13.30
2018,08,07,02,01,13.20
2018,08,07,02,02,13.20
2018,08,07,02,03,13.20
2018,08,07,02,04,13.20
2018,08,07,02,05,13.20
2018,08,07,02,06,13.20
2018,08,07,02,07,13.20
2018,08,07,02,08,13.10
2018,08,07,02,09,13.10
2018,08,07,02,10,13.10
2018,08,07,02,11,13.10
2018,08,07,02,12,13.10
2018,08,07,02,13,13.10
2018,08,07,02,14,13.10
2018,08,07,02,15,13.10
2018,08,07,02,16,13.10
2018,08,07,02,17,13.10
2018,08,07,02,18,13.10
2018,08,07,02,19,13.10
2018,08,07,02,20,13.10
2018,08,07,02,21,13.10
2018,08,07,02,22,13.20
2018,08,07,02,23,13.20
2018,08,07,02,24,13.20
2018,08,07,02,25,13.20
2018,08,07,02,26,13.20
2018,08,07,02,27,13.20
2018,08,07,02,28,13.20
2018,08,07,02,29,13.20
2018,08,07,02,30,13.20
2018,08,07,02,31,13.30
2018,08,07,02,32,13.30
2018,08,07,02,33,13.30
2018,08,07,02,34,13.30
2018,08,07,02,35,13.30
2018,08,07,02,36,13.30
2018,08,07,02,37,13.30
2018,08,07,02,38,13.30
2018,08,07,02,39,13.30
2018,08,07,02,40,13.30
2018,08,07,02,41,13.30
2018,08,07,02,42,13.30
2018,08,07,02,43,13.30
2018,08,07,02,44,13.30
2018,08,07,02,45,13.30
2018,08,07,02,46,13.30
2018,08,07,02,47,13.30
2018,08,07,02,48,13.30
2018,08,07,02,49,13.30
2018,08,07,02,50,13.30
2018,08,07,02,51,13.30
2018,08,07,02,52,13.30
2018,08,07,02,53,13.30
2018,08,07,02,54,13.30
2018,08,07,02,55,13.30
2018,08,07,02,56,13.30
2018,08,07,02,57,13.30
2018,08,07,02,58,13.30
2018,08,07,02,59,13.30
2018,08,07,03,00,13.30
2018,08,07,03,01,13.30
2018,08,07,03,02,13.30
2018,08,07,03,03,13.30
2018,08,07,03,04,13.30
2018,08,07,03,05,13.30
2018,08,07,03,06,13.30
2018,08,07,03,07,13.30
2018,08,07,03,08,13.30
2018,08,07,03,09,13.30
2018,08,07,03,10,13.30
2018,08,07,03,11,13.30
2018,08,07,03,12,13.30
2018,08,07,03,13,13.30
2018,08,07,03,14,13.20
2018,08,07,03,15,13.20
2018,08,07,03,16,13.20
2018,08,07,03,17,13.20
2018,08,07,03,18,13.20
2018,08,07,03,19,13.20
2018,08,07,03,20,13.10
2018,08,07,03,21,13.10
2018,08,07,03,22,13.10
2018,08,07,03,23,13.10
2018,08,07,03,24,13.10
2018,08,07,03,25,13.00
2018,08,07,03,26,13.00
2018,08,07,03,27,13.00
2018,08,07,03,28,13.00
2018,08,07,03,29,13.00
2018,08,07,03,30,13.00
2018,08,07,03,31,13.00
2018,08,07,03,32,13.00
2018,08,07,03,33,13.00
2018,08,07,03,34,13.00
2018,08,07,03,35,13.10
2018,08,07,03,36,13.10
2018,08,07,03,37,13.10
2018,08,07,03,38,13.10
2018,08,07,03,39,13.10
2018,08,07,03,40,13.10
2018,08,07,03,41,13.10
2018,08,07,03,42,13.20
2018,08,07,03,43,13.20
2018,08,07,03,44,13.20
2018,08,07,03,45,13.20
2018,08,07,03,46,13.20
2018,08,07,03,47,13.20
2018,08,07,03,48,13.20
2018,08,07,03,49,13.20
2018,08,07,03,50,13.30
2018,08,07,03,51,13.30
2018,08,07,03,52,13.30
2018,08,07,03,53,13.30
2018,08,07,03,54,13.20
2018,08,07,03,55,13.20
2018,08,07,03,56,13.30
2018,08,07,03,57,13.30
2018,08,07,03,58,13.30
2018,08,07,03,59,13.30
2018,08,07,04,00,13.30
2018,08,07,04,01,13.30
2018,08,07,04,02,13.30
2018,08,07,04,03,13.20
2018,08,07,04,04,13.30
2018,08,07,04,05,13.30
2018,08,07,04,06,13.30
2018,08,07,04,07,13.30
2018,08,07,04,08,13.30
2018,08,07,04,09,13.30
2018,08,07,04,10,13.20
2018,08,07,04,11,13.20
2018,08,07,04,12,13.20
2018,08,07,04,13,13.20
2018,08,07,04,14,13.20
2018,08,07,04,15,13.20
2018,08,07,04,16,13.20
2018,08,07,04,17,13.20
2018,08,07,04,18,13.20
2018,08,07,04,19,13.20
2018,08,07,04,20,13.20
2018,08,07,04,21,13.20
2018,08,07,04,22,13.20
2018,08,07,04,23,13.20
2018,08,07,04,24,13.20
2018,08,07,04,25,13.20
2018,08,07,04,26,13.20
2018,08,07,04,27,13.20
2018,08,07,04,28,13.10
2018,08,07,04,29,13.10
2018,08,07,04,30,13.10
2018,08,07,04,31,13.10
2018,08,07,04,32,13.10
2018,08,07,04,33,13.10
2018,08,07,04,34,13.10
2018,08,07,04,35,13.10
2018,08,07,04,36,13.10
2018,08,07,04,37,13.20
2018,08,07,04,38,13.20
2018,08,07,04,39,13.20
2018,08,07,04,40,13.20
2018,08,07,04,41,13.20
2018,08,07,04,42,13.20
2018,08,07,04,43,13.20
2018,08,07,04,44,13.10
2018,08,07,04,45,13.10
2018,08,07,04,46,13.10
2018,08,07,04,47,13.10
2018,08,07,04,48,13.10
2018,08,07,04,49,13.10
2018,08,07,04,50,13.10
2018,08,07,04,51,13.10
2018,08,07,04,52,13.10
2018,08,07,04,53,13.20
2018,08,07,04,54,13.20
2018,08,07,04,55,13.20
2018,08,07,04,56,13.10
2018,08,07,04,57,13.10
2018,08,07,04,58,13.10
2018,08,07,04,59,13.10
2018,08,07,05,00,13.10
2018,08,07,05,01,13.10
2018,08,07,05,02,13.10
2018,08,07,05,03,13.10
2018,08,07,05,04,13.10
2018,08,07,05,05,13.10
2018,08,07,05,06,13.10
2018,08,07,05,07,13.10
2018,08,07,05,08,13.10
2018,08,07,05,09,13.10
2018,08,07,05,10,13.10
2018,08,07,05,11,13.10
2018,08,07,05,12,13.10
2018,08,07,05,13,13.10
2018,08,07,05,14,13.10
2018,08,07,05,15,13.10
2018,08,07,05,16,13.10
2018,08,07,05,17,13.00
2018,08,07,05,18,13.00
2018,08,07,05,19,13.00
2018,08,07,05,20,12.90
2018,08,07,05,21,12.90
2018,08,07,05,22,12.90
2018,08,07,05,23,12.90
2018,08,07,05,24,12.90
2018,08,07,05,25,12.90
2018,08,07,05,26,12.90
2018,08,07,05,27,12.90
2018,08,07,05,28,12.90
2018,08,07,05,29,12.90
2018,08,07,05,30,12.80
2018,08,07,05,31,12.80
2018,08,07,05,32,12.70
2018,08,07,05,33,12.70
2018,08,07,05,34,12.60
2018,08,07,05,35,12.60
2018,08,07,05,36,12.60
2018,08,07,05,37,12.60
2018,08,07,05,38,12.60
2018,08,07,05,39,12.50
2018,08,07,05,40,12.50
2018,08,07,05,41,12.40
2018,08,07,05,42,12.40
2018,08,07,05,43,12.40
2018,08,07,05,44,12.30
2018,08,07,05,45,12.30
2018,08,07,05,46,12.30
2018,08,07,05,47,12.30
2018,08,07,05,48,12.20
2018,08,07,05,49,12.20
2018,08,07,05,50,12.20
2018,08,07,05,51,12.20
2018,08,07,05,52,12.20
2018,08,07,05,53,12.20
2018,08,07,05,54,12.20
2018,08,07,05,55,12.20
2018,08,07,05,56,12.20
2018,08,07,05,57,12.20
2018,08,07,05,58,12.20
2018,08,07,05,59,12.20
2018,08,07,06,00,12.20
2018,08,07,06,01,12.20
2018,08,07,06,02,12.20
2018,08,07,06,03,12.20
2018,08,07,06,04,12.20
2018,08,07,06,05,12.20
2018,08,07,06,06,12.30
2018,08,07,06,07,12.30
2018,08,07,06,08,12.30
2018,08,07,06,09,12.30
2018,08,07,06,10,12.30
2018,08,07,06,11,12.30
2018,08,07,06,12,12.30
2018,08,07,06,13,12.30
2018,08,07,06,14,12.30
2018,08,07,06,15,12.30
2018,08,07,06,16,12.30
2018,08,07,06,17,12.30
2018,08,07,06,18,12.30
2018,08,07,06,19,12.30
2018,08,07,06,20,12.30
2018,08,07,06,21,12.30
2018,08,07,06,22,12.30
2018,08,07,06,23,12.30
2018,08,07,06,24,12.30
2018,08,07,06,25,12.30
2018,08,07,06,26,12.30
2018,08,07,06,27,12.30
2018,08,07,06,28,12.30
2018,08,07,06,29,12.40
2018,08,07,06,30,12.40
2018,08,07,06,31,12.40
2018,08,07,06,32,12.40
2018,08,07,06,33,12.40
2018,08,07,06,34,12.50
2018,08,07,06,35,12.50
2018,08,07,06,36,12.50
2018,08,07,06,37,12.50
2018,08,07,06,38,12.50
2018,08,07,06,39,12.50
2018,08,07,06,40,12.50
2018,08,07,06,41,12.50
2018,08,07,06,42,12.50
2018,08,07,06,43,12.50
2018,08,07,06,44,12.50
2018,08,07,06,45,12.50
2018,08,07,06,46,12.60
2018,08,07,06,47,12.60
2018,08,07,06,48,12.60
2018,08,07,06,49,12.60
2018,08,07,06,50,12.60
2018,08,07,06,51,12.60
2018,08,07,06,52,12.60
2018,08,07,06,53,12.70
2018,08,07,06,54,12.70
2018,08,07,06,55,12.70
2018,08,07,06,56,12.70
2018,08,07,06,57,12.70
2018,08,07,06,58,12.70
2018,08,07,06,59,12.70
2018,08,07,07,00,12.70
2018,08,07,07,01,12.70
2018,08,07,07,02,12.70
2018,08,07,07,03,12.70
2018,08,07,07,04,12.70
2018,08,07,07,05,12.70
2018,08,07,07,06,12.70
2018,08,07,07,07,12.70
2018,08,07,07,08,12.80
2018,08,07,07,09,12.80
2018,08,07,07,10,12.80
2018,08,07,07,11,12.80
2018,08,07,07,12,12.80
2018,08,07,07,13,12.80
2018,08,07,07,14,12.80
2018,08,07,07,15,12.80
2018,08,07,07,16,12.80
2018,08,07,07,17,12.80
2018,08,07,07,18,12.80
2018,08,07,07,19,12.80
2018,08,07,07,20,12.80
2018,08,07,07,21,12.80
2018,08,07,07,22,12.90
2018,08,07,07,23,12.90
2018,08,07,07,24,12.90
2018,08,07,07,25,12.90
2018,08,07,07,26,12.90
2018,08,07,07,27,12.90
2018,08,07,07,28,12.90
2018,08,07,07,29,12.80
2018,08,07,07,30,12.80
2018,08,07,07,31,12.80
2018,08,07,07,32,12.80
2018,08,07,07,33,12.80
2018,08,07,07,34,12.90
2018,08,07,07,35,12.90
2018,08,07,07,36,12.90
2018,08,07,07,37,12.90
2018,08,07,07,38,12.90
2018,08,07,07,39,12.90
2018,08,07,07,40,12.90
2018,08,07,07,41,12.90
2018,08,07,07,42,12.90
2018,08,07,07,43,12.90
2018,08,07,07,44,12.90
2018,08,07,07,45,12.90
2018,08,07,07,46,12.90
2018,08,07,07,47,12.90
2018,08,07,07,48,12.90
2018,08,07,07,49,13.00
2018,08,07,07,50,12.90
2018,08,07,07,51,12.90
2018,08,07,07,52,12.90
2018,08,07,07,53,12.80
2018,08,07,07,54,12.80
2018,08,07,07,55,12.80
2018,08,07,07,56,12.90
2018,08,07,07,57,12.90
2018,08,07,07,58,12.90
2018,08,07,07,59,12.90
2018,08,07,08,00,12.90
2018,08,07,08,01,12.90
2018,08,07,08,02,12.80
2018,08,07,08,03,12.90
2018,08,07,08,04,12.90
2018,08,07,08,05,12.90
2018,08,07,08,06,12.90
2018,08,07,08,07,12.90
2018,08,07,08,08,12.90
2018,08,07,08,09,12.90
2018,08,07,08,10,12.90
2018,08,07,08,11,12.90
2018,08,07,08,12,12.90
2018,08,07,08,13,13.00
2018,08,07,08,14,13.00
2018,08,07,08,15,13.00
2018,08,07,08,16,13.10
2018,08,07,08,17,13.10
2018,08,07,08,18,13.10
2018,08,07,08,19,13.20
2018,08,07,08,20,13.20
2018,08,07,08,21,13.30
2018,08,07,08,22,13.30
2018,08,07,08,23,13.30
2018,08,07,08,24,13.30
2018,08,07,08,25,13.40
2018,08,07,08,26,13.40
2018,08,07,08,27,13.40
2018,08,07,08,28,13.40
2018,08,07,08,29,13.40
2018,08,07,08,30,13.40
2018,08,07,08,31,13.30
2018,08,07,08,32,13.30
2018,08,07,08,33,13.30
2018,08,07,08,34,13.30
2018,08,07,08,35,13.30
2018,08,07,08,36,13.40
2018,08,07,08,37,13.40
2018,08,07,08,38,13.40
2018,08,07,08,39,13.50
2018,08,07,08,40,13.50
2018,08,07,08,41,13.60
2018,08,07,08,42,13.70
2018,08,07,08,43,13.70
2018,08,07,08,44,13.80
2018,08,07,08,45,13.80
2018,08,07,08,46,13.90
2018,08,07,08,47,14.00
2018,08,07,08,48,14.00
2018,08,07,08,49,14.10
2018,08,07,08,50,14.20
2018,08,07,08,51,14.30
2018,08,07,08,52,14.30
2018,08,07,08,53,14.30
2018,08,07,08,54,14.40
2018,08,07,08,55,14.40
2018,08,07,08,56,14.50
2018,08,07,08,57,14.60
2018,08,07,08,58,14.60
2018,08,07,08,59,14.70
2018,08,07,09,00,14.60
2018,08,07,09,01,14.50
2018,08,07,09,02,14.50
2018,08,07,09,03,14.50
2018,08,07,09,04,14.40
2018,08,07,09,05,14.40
2018,08,07,09,06,14.40
2018,08,07,09,07,14.40
2018,08,07,09,08,14.40
2018,08,07,09,09,14.40
2018,08,07,09,10,14.40
2018,08,07,09,11,14.40
2018,08,07,09,12,14.40
2018,08,07,09,13,14.40
2018,08,07,09,14,14.30
2018,08,07,09,15,14.30
2018,08,07,09,16,14.40
2018,08,07,09,17,14.40
2018,08,07,09,18,14.40
2018,08,07,09,19,14.40
2018,08,07,09,20,14.40
2018,08,07,09,21,14.40
2018,08,07,09,22,14.30
2018,08,07,09,23,14.20
2018,08,07,09,24,14.10
2018,08,07,09,25,14.00
2018,08,07,09,26,13.90
2018,08,07,09,27,13.80
2018,08,07,09,28,13.80
2018,08,07,09,29,13.80
2018,08,07,09,30,13.80
2018,08,07,09,31,13.70
2018,08,07,09,32,13.70
2018,08,07,09,33,13.70
2018,08,07,09,34,13.80
2018,08,07,09,35,13.80
2018,08,07,09,36,13.70
2018,08,07,09,37,13.70
2018,08,07,09,38,13.70
2018,08,07,09,39,13.70
2018,08,07,09,40,13.70
2018,08,07,09,41,13.70
2018,08,07,09,42,13.80
2018,08,07,09,43,13.80
2018,08,07,09,44,13.80
2018,08,07,09,45,13.80
2018,08,07,09,46,13.80
2018,08,07,09,47,13.80
2018,08,07,09,48,13.80
2018,08,07,09,49,13.80
2018,08,07,09,50,13.80
2018,08,07,09,51,13.80
2018,08,07,09,52,13.80
2018,08,07,09,53,13.80
2018,08,07,09,54,13.80
2018,08,07,09,55,13.80
2018,08,07,09,56,13.80
2018,08,07,09,57,13.80
2018,08,07,09,58,13.90
2018,08,07,09,59,13.90
2018,08,07,10,00,13.90
2018,08,07,10,01,13.90
2018,08,07,10,02,14.00
2018,08,07,10,03,14.10
2018,08,07,10,04,14.10
2018,08,07,10,05,14.20
2018,08,07,10,06,14.30
2018,08,07,10,07,14.40
2018,08,07,10,08,14.40
2018,08,07,10,09,14.40
2018,08,07,10,10,14.40
2018,08,07,10,11,14.40
2018,08,07,10,12,14.50
2018,08,07,10,13,14.50
2018,08,07,10,14,14.60
2018,08,07,10,15,14.60
2018,08,07,10,16,14.70
2018,08,07,10,17,14.70
2018,08,07,10,18,14.80
2018,08,07,10,19,14.80
2018,08,07,10,20,14.70
2018,08,07,10,21,14.70
2018,08,07,10,22,14.70
2018,08,07,10,23,14.80
2018,08,07,10,24,14.80
2018,08,07,10,25,14.80
2018,08,07,10,26,14.80
2018,08,07,10,27,14.80
2018,08,07,10,28,14.70
2018,08,07,10,29,14.80
2018,08,07,10,30,14.80
2018,08,07,10,31,14.80
2018,08,07,10,32,14.80
2018,08,07,10,33,14.90
2018,08,07,10,34,14.90
2018,08,07,10,35,15.00
2018,08,07,10,36,15.00
2018,08,07,10,37,15.00
2018,08,07,10,38,15.00
2018,08,07,10,39,15.00
2018,08,07,10,40,15.10
2018,08,07,10,41,15.20
2018,08,07,10,42,15.20
2018,08,07,10,43,15.30
2018,08,07,10,44,15.30
2018,08,07,10,45,15.40
2018,08,07,10,46,15.40
2018,08,07,10,47,15.40
2018,08,07,10,48,15.50
2018,08,07,10,49,15.60
2018,08,07,10,50,15.70
2018,08,07,10,51,15.70
2018,08,07,10,52,15.80
2018,08,07,10,53,15.90
2018,08,07,10,54,15.90
2018,08,07,10,55,16.00
2018,08,07,10,56,16.00
2018,08,07,10,57,16.00
2018,08,07,10,58,16.00
2018,08,07,10,59,15.90
2018,08,07,11,00,15.90
2018,08,07,11,01,15.80
2018,08,07,11,02,15.80
2018,08,07,11,03,15.70
2018,08,07,11,04,15.60
2018,08,07,11,05,15.60
2018,08,07,11,06,15.50
2018,08,07,11,07,15.40
2018,08,07,11,08,15.30
2018,08,07,11,09,15.20
2018,08,07,11,10,15.20
2018,08,07,11,11,15.20
2018,08,07,11,12,15.10
2018,08,07,11,13,15.10
2018,08,07,11,14,15.10
2018,08,07,11,15,15.10
2018,08,07,11,16,15.00
2018,08,07,11,17,15.00
2018,08,07,11,18,15.00
2018,08,07,11,19,15.00
2018,08,07,11,20,15.00
2018,08,07,11,21,15.00
2018,08,07,11,22,15.00
2018,08,07,11,23,14.90
2018,08,07,11,24,14.90
2018,08,07,11,25,14.90
2018,08,07,11,26,14.90
2018,08,07,11,27,14.90
2018,08,07,11,28,15.00
2018,08,07,11,29,15.00
2018,08,07,11,30,15.00
2018,08,07,11,31,15.00
2018,08,07,11,32,15.00
2018,08,07,11,33,15.00
2018,08,07,11,34,15.00
2018,08,07,11,35,15.00
2018,08,07,11,36,15.00
2018,08,07,11,37,15.00
2018,08,07,11,38,15.00
2018,08,07,11,39,15.00
2018,08,07,11,40,15.00
2018,08,07,11,41,15.00
2018,08,07,11,42,15.00
2018,08,07,11,43,15.00
2018,08,07,11,44,14.90
2018,08,07,11,45,14.90
2018,08,07,11,46,14.80
2018,08,07,11,47,14.80
2018,08,07,11,48,14.70
2018,08,07,11,49,14.70
2018,08,07,11,50,14.60
2018,08,07,11,51,14.60
2018,08,07,11,52,14.60
2018,08,07,11,53,14.60
2018,08,07,11,54,14.60
2018,08,07,11,55,14.60
2018,08,07,11,56,14.60
2018,08,07,11,57,14.70
2018,08,07,11,58,14.70
2018,08,07,11,59,14.70
2018,08,07,12,00,14.80
2018,08,07,12,01,14.80
2018,08,07,12,02,14.80
2018,08,07,12,03,14.80
2018,08,07,12,04,14.80
2018,08,07,12,05,14.80
2018,08,07,12,06,14.80
2018,08,07,12,07,14.90
2018,08,07,12,08,14.90
2018,08,07,12,09,14.90
2018,08,07,12,10,14.90
2018,08,07,12,11,14.90
2018,08,07,12,12,15.00
2018,08,07,12,13,15.00
2018,08,07,12,14,15.10
2018,08,07,12,15,15.10
2018,08,07,12,16,15.30
2018,08,07,12,17,15.30
2018,08,07,12,18,15.40
2018,08,07,12,19,15.40
2018,08,07,12,20,15.50
2018,08,07,12,21,15.50
2018,08,07,12,22,15.60
2018,08,07,12,23,15.70
2018,08,07,12,24,15.70
2018,08,07,12,25,15.80
2018,08,07,12,26,15.90
2018,08,07,12,27,15.90
2018,08,07,12,28,16.00
2018,08,07,12,29,16.10
2018,08,07,12,30,16.20
2018,08,07,12,31,16.20
2018,08,07,12,32,16.30
2018,08,07,12,33,16.30
2018,08,07,12,34,16.40
2018,08,07,12,35,16.40
2018,08,07,12,36,16.50
2018,08,07,12,37,16.50
2018,08,07,12,38,16.60
2018,08,07,12,39,16.60
2018,08,07,12,40,16.60
2018,08,07,12,41,16.70
2018,08,07,12,42,16.80
2018,08,07,12,43,16.80
2018,08,07,12,44,16.80
2018,08,07,12,45,16.80
2018,08,07,12,46,16.80
2018,08,07,12,47,16.80
2018,08,07,12,48,16.90
2018,08,07,12,49,16.90
2018,08,07,12,50,16.90
2018,08,07,12,51,16.90
2018,08,07,12,52,17.00
2018,08,07,12,53,17.00
2018,08,07,12,54,17.10
2018,08,07,12,55,17.10
2018,08,07,12,56,17.20
2018,08,07,12,57,17.20
2018,08,07,12,58,17.20
2018,08,07,12,59,17.30
2018,08,07,13,00,17.30
2018,08,07,13,01,17.20
2018,08,07,13,02,17.20
2018,08,07,13,03,17.10
2018,08,07,13,04,17.10
2018,08,07,13,05,17.20
2018,08,07,13,06,17.10
2018,08,07,13,07,17.10
2018,08,07,13,08,17.10
2018,08,07,13,09,17.10
2018,08,07,13,10,17.10
2018,08,07,13,11,17.10
2018,08,07,13,12,17.10
2018,08,07,13,13,17.20
2018,08,07,13,14,17.10
2018,08,07,13,15,17.00
2018,08,07,13,16,16.90
2018,08,07,13,17,16.90
2018,08,07,13,18,16.70
2018,08,07,13,19,16.60
2018,08,07,13,20,16.50
2018,08,07,13,21,16.50
2018,08,07,13,22,16.50
2018,08,07,13,23,16.50
2018,08,07,13,24,16.40
2018,08,07,13,25,16.30
2018,08,07,13,26,16.20
2018,08,07,13,27,16.20
2018,08,07,13,28,16.20
2018,08,07,13,29,16.30
2018,08,07,13,30,16.30
2018,08,07,13,31,16.30
2018,08,07,13,32,16.30
2018,08,07,13,33,16.40
2018,08,07,13,34,16.40
2018,08,07,13,35,16.50
2018,08,07,13,36,16.50
2018,08,07,13,37,16.60
2018,08,07,13,38,16.60
2018,08,07,13,39,16.60
2018,08,07,13,40,16.60
2018,08,07,13,41,16.50
2018,08,07,13,42,16.50
2018,08,07,13,43,16.50
2018,08,07,13,44,16.60
2018,08,07,13,45,16.60
2018,08,07,13,46,16.80
2018,08,07,13,47,16.80
2018,08,07,13,48,16.90
2018,08,07,13,49,17.00
2018,08,07,13,50,17.10
2018,08,07,13,51,17.10
2018,08,07,13,52,17.20
2018,08,07,13,53,17.20
2018,08,07,13,54,17.20
2018,08,07,13,55,17.20
2018,08,07,13,56,17.20
2018,08,07,13,57,17.20
2018,08,07,13,58,17.20
2018,08,07,13,59,17.20
2018,08,07,14,00,17.30
2018,08,07,14,01,17.30
2018,08,07,14,02,17.30
2018,08,07,14,03,17.30
2018,08,07,14,04,17.30
2018,08,07,14,05,17.30
2018,08,07,14,06,17.30
2018,08,07,14,07,17.20
2018,08,07,14,08,17.30
2018,08,07,14,09,17.30
2018,08,07,14,10,17.40
2018,08,07,14,11,17.50
2018,08,07,14,12,17.60
2018,08,07,14,13,17.60
2018,08,07,14,14,17.70
2018,08,07,14,15,17.70
2018,08,07,14,16,17.60
2018,08,07,14,17,17.60
2018,08,07,14,18,17.60
2018,08,07,14,19,17.70
2018,08,07,14,20,17.80
2018,08,07,14,21,17.80
2018,08,07,14,22,17.80
2018,08,07,14,23,17.90
2018,08,07,14,24,17.90
2018,08,07,14,25,17.80
2018,08,07,14,26,17.80
2018,08,07,14,27,17.80
2018,08,07,14,28,17.80
2018,08,07,14,29,17.80
2018,08,07,14,30,17.70
2018,08,07,14,31,17.60
2018,08,07,14,32,17.40
2018,08,07,14,33,17.40
2018,08,07,14,34,17.40
2018,08,07,14,35,17.40
2018,08,07,14,36,17.30
2018,08,07,14,37,17.30
2018,08,07,14,38,17.20
2018,08,07,14,39,17.20
2018,08,07,14,40,17.20
2018,08,07,14,41,17.20
2018,08,07,14,42,17.30
2018,08,07,14,43,17.40
2018,08,07,14,44,17.50
2018,08,07,14,45,17.50
2018,08,07,14,46,17.50
2018,08,07,14,47,17.40
2018,08,07,14,48,17.40
2018,08,07,14,49,17.40
2018,08,07,14,50,17.40
2018,08,07,14,51,17.40
2018,08,07,14,52,17.30
2018,08,07,14,53,17.30
2018,08,07,14,54,17.20
2018,08,07,14,55,17.10
2018,08,07,14,56,17.00
2018,08,07,14,57,16.90
2018,08,07,14,58,16.90
2018,08,07,14,59,16.90
2018,08,07,15,00,16.80
2018,08,07,15,01,16.80
2018,08,07,15,02,16.90
2018,08,07,15,03,17.00
2018,08,07,15,04,17.10
2018,08,07,15,05,17.10
2018,08,07,15,06,17.10
2018,08,07,15,07,17.10
2018,08,07,15,08,17.10
2018,08,07,15,09,17.00
2018,08,07,15,10,16.90
2018,08,07,15,11,16.90
2018,08,07,15,12,16.90
2018,08,07,15,13,17.00
2018,08,07,15,14,17.10
2018,08,07,15,15,17.10
2018,08,07,15,16,17.10
2018,08,07,15,17,17.10
2018,08,07,15,18,17.00
2018,08,07,15,19,16.90
2018,08,07,15,20,16.80
2018,08,07,15,21,16.80
2018,08,07,15,22,16.80
2018,08,07,15,23,16.70
2018,08,07,15,24,16.70
2018,08,07,15,25,16.70
2018,08,07,15,26,16.60
2018,08,07,15,27,16.60
2018,08,07,15,28,16.60
2018,08,07,15,29,16.60
2018,08,07,15,30,16.60
2018,08,07,15,31,16.60
2018,08,07,15,32,16.60
2018,08,07,15,33,16.60
2018,08,07,15,34,16.70
2018,08,07,15,35,16.70
2018,08,07,15,36,16.80
2018,08,07,15,37,16.90
2018,08,07,15,38,17.00
2018,08,07,15,39,17.00
2018,08,07,15,40,17.10
2018,08,07,15,41,17.20
2018,08,07,15,42,17.20
2018,08,07,15,43,17.20
2018,08,07,15,44,17.10
2018,08,07,15,45,17.10
2018,08,07,15,46,17.10
2018,08,07,15,47,17.10
2018,08,07,15,48,17.00
2018,08,07,15,49,16.90
2018,08,07,15,50,16.80
2018,08,07,15,51,16.70
2018,08,07,15,52,16.60
2018,08,07,15,53,16.60
2018,08,07,15,54,16.70
2018,08,07,15,55,16.70
2018,08,07,15,56,16.70
2018,08,07,15,57,16.70
2018,08,07,15,58,16.70
2018,08,07,15,59,16.70
2018,08,07,16,00,16.60
2018,08,07,16,01,16.50
2018,08,07,16,02,16.50
2018,08,07,16,03,16.40
2018,08,07,16,04,16.40
2018,08,07,16,05,16.40
2018,08,07,16,06,16.40
2018,08,07,16,07,16.50
2018,08,07,16,08,16.50
2018,08,07,16,09,16.60
2018,08,07,16,10,16.70
2018,08,07,16,11,16.80
2018,08,07,16,12,17.00
2018,08,07,16,13,17.00
2018,08,07,16,14,17.10
2018,08,07,16,15,17.10
2018,08,07,16,16,17.20
2018,08,07,16,17,17.20
2018,08,07,16,18,17.20
2018,08,07,16,19,17.20
2018,08,07,16,20,17.20
2018,08,07,16,21,17.20
2018,08,07,16,22,17.20
2018,08,07,16,23,17.20
2018,08,07,16,24,17.20
2018,08,07,16,25,17.20
2018,08,07,16,26,17.00
2018,08,07,16,27,16.70
2018,08,07,16,28,16.70
2018,08,07,16,29,16.70
2018,08,07,16,30,16.70
2018,08,07,16,31,16.70
2018,08,07,16,32,16.70
2018,08,07,16,33,16.70
2018,08,07,16,34,16.80
2018,08,07,16,35,16.80
2018,08,07,16,36,16.80
2018,08,07,16,37,16.80
2018,08,07,16,38,16.70
2018,08,07,16,39,16.70
2018,08,07,16,40,16.80
2018,08,07,16,41,16.80
2018,08,07,16,42,16.90
2018,08,07,16,43,16.90
2018,08,07,16,44,16.90
2018,08,07,16,45,16.90
2018,08,07,16,46,16.90
2018,08,07,16,47,16.80
2018,08,07,16,48,16.80
2018,08,07,16,49,16.80
2018,08,07,16,50,16.70
2018,08,07,16,51,16.60
2018,08,07,16,52,16.60
2018,08,07,16,53,16.60
2018,08,07,16,54,16.70
2018,08,07,16,55,16.70
2018,08,07,16,56,16.80
2018,08,07,16,57,16.90
2018,08,07,16,58,17.00
2018,08,07,16,59,17.10
2018,08,07,17,00,17.10
2018,08,07,17,01,17.10
2018,08,07,17,02,17.10
2018,08,07,17,03,17.00
2018,08,07,17,04,16.90
2018,08,07,17,05,16.80
2018,08,07,17,06,16.80
2018,08,07,17,07,16.80
2018,08,07,17,08,16.80
2018,08,07,17,09,16.80
2018,08,07,17,10,16.80
2018,08,07,17,11,16.90
2018,08,07,17,12,17.00
2018,08,07,17,13,17.00
2018,08,07,17,14,17.00
2018,08,07,17,15,17.10
2018,08,07,17,16,17.10
2018,08,07,17,17,17.10
2018,08,07,17,18,17.20
2018,08,07,17,19,17.20